Tracking 25710 objects as of 5-Jul-2022
HD Live streaming from Space Station
objects crossing your sky now

BSAT-2C

Track BSAT-2C now!
BSAT-2C is classified as:


NORAD ID: 27830
Int'l Code: 2003-028A
Perigee: 36,076.9 km
Apogee: 36,116.4 km
Inclination: 6.9 °
Period: 1,451.6 minutes
Semi major axis: 42467 km
RCS: 12.6191 m2 (large)
Launch date: June 11, 2003
Source: Japan (JPN)
Launch site: FRENCH GUIANA (FRGUI)

Backup to BSAT-2A; direct digital broadcasts to homes in Japan and neighboring countries through its Ku-band transponders.
aabbcc
Your satellite tracking list
Your tracking list is empty




NASA's NSSDC Master Catalog

Two Line Element Set (TLE):
1 27830U 03028A   22185.56160470 -.00000211  00000-0  00000-0 0  9995
2 27830   6.9245  64.2333 0004646 301.2658 235.4549  0.99200857 32337
Source of the keplerian elements: AFSPC